Terminal Aerodrome Forecast
Issued by NWS Houston/Galveston, TX

Home | Current Version | Previous Version | Text Only | Print | Product List | Glossary On
Versions: 1 2 3 4 5 6 7 8 9 10 11 12 13 14 15 16 17 18 19 20 21 22 23 24 25 26 27 28 29 30 31 32 33 34 35 36 37 38 39 40 41 42 43 44 45 46 47 48 49 50
000
FTUS44 KHGX 210202 AAA
TAFGLS
TAF AMD
KGLS 210202Z 2102/2124 03007KT P6SM FEW025 SCT035
     FM211100 03008KT P6SM BKN015
     FM211500 05008KT P6SM SCT015 SCT070
     FM211900 09007KT P6SM BKN070=

USA.gov is the U.S. government's official web portal to all federal, state and local government web resources and services.